Location: Morisset
(33.1080°S, 151.4871°E)
Time: 09:11:28
(UTC+00:00)

Meteor 1-22 Rocket - Pass Details

Date: 29 October 2020
Orbit: 787 x 941 km, 81.2° (Epoch: 28 November)

Event Time Altitude Azimuth Distance (km) Brightness Sun altitude
Exits shadow 17:39:36 21° 324° (NW) 1,723 5.3 -15.7°
Maximum altitude 17:42:55 48° 259° (WSW) 1,054 4.4 -15.1°
Drops below altitude 10° 17:48:16 10° 184° (S) 2,458 6.9 -14.1°
Sets 17:50:50 0° 178° (S) 3,422 7.8 -13.6°
